#timestamp,LO_Frequency,Hit,StdDev 
1673118015.3,286046998.2,N
1673118035.2,286046999.5,N
1673118055.0,286046999.6,N
1673118055.9,286046999.6,N
1673118075.8,286046999.6,N
1673118095.6,286046999.4,N
1673118115.4,286046996.6,Y
1673118135.3,286046998.8,P
1673118155.1,286047001.2,P
1673118175.9,286047000.6,N
1673118195.7,286047000.9,N
1673118215.5,286047001.1,N
1673118235.4,286047001.0,N
1673118255.2,286047001.1,N
1673118275.1,286046999.9,N
1673118276.0,286046999.9,N
1673118295.8,286047002.2,N
1673118315.6,286047002.5,N
1673118335.5,286047002.3,N
1673118355.3,286047001.5,N
1673118375.2,286047004.2,Y
1673118395.9,286047001.5,P
1673118415.7,286047001.4,P
1673118435.6,286047002.5,P
1673118455.4,286047002.7,Y
1673118475.2,286047001.2,P
1673118495.1,286046998.3,P
1673118496.0,286046998.3,N
1673118515.8,286046998.5,N
1673118535.7,286046998.5,N
1673118555.5,286046999.2,N
1673118575.4,286046997.1,N
1673118595.2,286046997.7,N
1673118615.0,286046997.7,N
1673118615.9,286046997.7,N
1673118635.8,286046996.6,N
1673118655.6,286046999.6,N
1673118675.4,286046999.6,N
1673118695.3,286046997.4,N
1673118715.1,286046995.2,Y
1673118735.9,286046997.1,P
1673118755.7,286046997.1,P
1673118775.6,286046997.0,P
1673118795.4,286046997.3,Y
1673118815.2,286047000.0,P
1673118835.1,286047000.5,N
1673118836.0,286047000.5,N
1673118855.8,286047000.4,N
1673118875.7,286047000.4,N
1673118895.5,286046999.7,N
1673118915.3,286047000.7,N
1673118935.2,286046998.6,N
1673118955.0,286046999.4,N
1673118955.9,286046999.4,N
1673118975.7,286046998.8,N
1673118995.6,286046999.2,N
1673119015.4,286046998.8,N
1673119035.3,286046999.4,N
1673119055.1,286046997.0,Y
1673119056.0,286046997.0,P
1673119075.8,286046997.0,N
1673119095.7,286046996.7,N
1673119115.5,286046997.2,N
1673119135.3,286046997.3,N
1673119155.2,286046997.2,N
1673119175.0,286046997.0,Y
1673119175.9,286046997.0,P
1673119195.8,286047000.6,N
1673119215.6,286046998.9,N
1673119235.5,286046997.3,N
1673119255.3,286046997.8,N
1673119275.1,286046996.7,N
1673119295.9,286046996.9,N
1673119315.7,286046998.7,N
1673119335.5,286046998.7,N
1673119355.4,286046996.5,Y
1673119375.2,286047000.9,P
1673119395.1,286047002.5,N
1673119396.0,286047002.5,N
1673119415.8,286047002.6,N
1673119435.6,286047002.8,N
1673119455.5,286047000.2,N
1673119475.3,286047001.8,N
1673119495.1,286047002.6,N
1673119515.9,286047002.5,N
1673119535.7,286047002.8,N
1673119555.6,286047002.4,N
1673119575.4,286047000.4,N
1673119595.2,286047002.2,N
1673119615.1,286046998.4,N
1673119616.0,286046998.4,N
1673119635.8,286046998.1,N
1673119655.6,286047000.2,N
1673119675.5,286046999.9,N
1673119695.3,286046999.9,N
1673119715.2,286047001.1,N
1673119735.9,286046998.2,N
1673119755.7,286046998.5,N
1673119775.6,286047000.4,N
1673119795.4,286047001.0,N
1673119815.2,286046998.1,N
1673119835.1,286046998.5,N
1673119836.0,286046998.5,N
1673119855.8,286046999.3,N
1673119875.7,286047000.7,N
1673119895.5,286047000.3,N
1673119915.3,286046999.2,N
1673119935.2,286046997.4,N
1673119955.0,286046999.2,N
1673119955.9,286046999.2,N
1673119975.8,286046999.6,N
1673119995.6,286046999.5,N
1673120015.4,286046999.5,N
1673120035.3,286046999.3,N
1673120055.1,286046998.3,N
1673120075.8,286046999.1,N
1673120095.7,286046997.1,N
1673120115.5,286046994.9,Y
1673120135.4,286046997.3,P
1673120155.2,286046996.8,P
1673120175.0,286046997.8,N
1673120175.9,286046997.8,N
1673120195.8,286046996.1,Y
1673120215.6,286046997.2,P
1673120235.5,286046997.4,P
1673120255.3,286046997.4,P
1673120275.1,286046996.9,Y
1673120295.9,286047001.9,P
1673120315.7,286047002.0,N
1673120335.5,286047001.6,N
1673120355.4,286047002.0,N
1673120375.2,286047001.9,N
1673120395.1,286047002.4,N
1673120396.0,286047002.4,N
1673120415.8,286047002.2,N
1673120435.6,286047002.6,N
1673120455.5,286047002.8,N
1673120475.3,286046999.9,N
1673120495.1,286047000.6,N
1673120515.9,286047000.4,N
1673120535.7,286047000.8,N
1673120555.6,286047000.3,N
1673120575.4,286047000.2,N
1673120595.2,286047000.6,N
1673120615.1,286047002.4,N
1673120616.0,286047002.4,N
1673120635.8,286047001.5,N
1673120655.6,286047002.4,N
1673120675.5,286047002.0,N
1673120695.3,286047002.0,N
1673120715.2,286046999.8,N
1673120735.9,286047002.4,N
1673120755.9,286047000.1,N
1673120775.7,286047000.1,N
1673120795.5,286047001.0,N
1673120815.4,286047001.0,N
1673120835.2,286047000.5,N
1673120855.1,286046998.2,N
1673120856.0,286046998.2,N
1673120875.8,286047000.8,N
1673120895.6,286046998.1,N
1673120915.5,286047001.1,N
1673120935.3,286047001.0,N
1673120955.1,286047001.0,N
1673120975.9,286046998.6,N
1673120995.7,286046998.3,N
1673121015.6,286046999.4,N
1673121035.4,286046996.7,N
1673121055.2,286046998.4,N
1673121075.1,286046998.7,N
1673121076.0,286046998.7,N
1673121095.8,286047001.2,N
1673121115.7,286047001.1,N
1673121135.5,286046998.3,N
1673121155.3,286046998.1,N
1673121175.2,286046998.8,N
1673121195.9,286046999.0,N
1673121215.7,286046999.4,N
1673121235.6,286046998.1,N
1673121255.4,286047000.8,N
1673121275.2,286047000.6,N
1673121295.1,286046998.8,N
1673121296.0,286046998.8,N
1673121315.8,286046998.3,N
1673121335.7,286046998.8,N
1673121355.5,286046999.4,N
1673121375.3,286046996.8,N
1673121395.2,286046999.2,N
1673121415.0,286046999.3,N
1673121415.9,286046999.3,N
1673121435.8,286046999.4,N
1673121455.6,286046996.5,Y
1673121475.4,286046999.5,P
1673121495.3,286046999.5,P
1673121515.1,286046998.4,P
1673121535.8,286047001.2,N
1673121555.7,286046999.4,N
1673121575.5,286046998.4,N
1673121595.3,286046998.6,N
